Overview Statistics Trail Chart Weather Telemetry Raw packets
 

This is the latest recevied weather packets stored in our database for station/object N0KWA. If no packets are shown the sender has not sent any weather packets the latest 10 day(s).

<< 1 2 3 4 5 6 >>
Time Temp. Humidity Pressure Rain* Wind** Luminosity Snow
1788562682 27.22° C 99% 1015.4 hPa 0 mm - 11 W/m² -
1788562375 27.22° C 99% 1015.2 hPa 0 mm - 12 W/m² -
1788562074 26.67° C 99% 1015.4 hPa 0 mm - 10 W/m² -
1788561770 26.67° C 99% 1015.2 hPa 0 mm - 11 W/m² -
1788561469 27.22° C 99% 1015.4 hPa 0 mm - 11 W/m² -
1788561164 27.22° C 99% 1015.4 hPa 0 mm - 12 W/m² -
1788560861 27.22° C 99% 1015.4 hPa 0 mm - 10 W/m² -
1788560556 27.22° C 99% 1015.3 hPa 0 mm - 11 W/m² -
1788560264 27.22° C 99% 1015.2 hPa 0 mm - 12 W/m² -
1788559944 27.22° C 99% 1015 hPa 0 mm - 15 W/m² -
1788559639 27.22° C 99% 1015.1 hPa 0 mm - 14 W/m² -
1788559334 26.67° C 99% 1014.9 hPa 0 mm - 15 W/m² -
1788559034 27.22° C 99% 1015 hPa 0 mm - 14 W/m² -
1788558730 26.67° C 99% 1015 hPa 0 mm - 16 W/m² -
1788558442 27.22° C 99% 1015 hPa 0 mm - 16 W/m² -
1788558126 27.22° C 99% 1015 hPa 0 mm - 11 W/m² -
1788557823 27.22° C 99% 1015.2 hPa 0 mm - 13 W/m² -
1788557521 27.22° C 99% 1015.1 hPa 0 mm - 19 W/m² -
1788557215 27.22° C 99% 1015.2 hPa 0 mm - 21 W/m² -
1788556910 27.22° C 99% 1015.3 hPa 0 mm - 29 W/m² -
1788556627 27.22° C 99% 1015.3 hPa 0 mm - 84 W/m² -
1788556305 26.67° C 99% 1015.2 hPa 0 mm - 126 W/m² -
1788555999 26.67° C 99% 1015.1 hPa 0 mm - 138 W/m² -
1788555695 26.67° C 99% 1015.2 hPa 0 mm - 57 W/m² -
1788555391 26.67° C 99% 1015.1 hPa 0 mm - 56 W/m² -

* Rain latest hour (hover to see other rain measurements)
** Current wind speed in m/s (hover to see current wind gust speed)